Location: Kerb�bon
(47.7970°N, 3.3487°W)
Time: 13:25:25
(UTC+00:00)

Cosmos 2297 - Pass Details

Date: 12 May 2021
Orbit: 837 x 857 km, 71.0° (Epoch: 18 June)

Event Time Altitude Azimuth Distance (km) Brightness Sun altitude
Exits shadow 22:50:23 31° 208° (SSW) 1,446 4.6 -21.5°
Maximum altitude 22:53:14 88° 296° (WNW) 855 3.6 -21.6°
Drops below altitude 10° 22:58:57 10° 27° (NNE) 2,475 6.7 -21.9°
Sets 23:01:24 0° 28° (NNE) 3,411 7.5 -22.1°
